Wetbulb
51.74 51.75 51.93 52.32 52.39 52.65 52.93 53.28 53.62 53.96 53.77 54.04 54.14 53.66 54.83 56.06 56.06 52.71 47.47 50.73 52.21 54.45 54.41 50.74 50.22 51.21 51.75 52.14 54.73 55.96 49.88 47.30 48.59 49.08 50.54 48.69 48.46 46.72 46.79 46.69 47.05 46.57 46.66 46.65 47.96
51.29 51.34 51.19 51.82 51.92 51.94 52.18 52.72 52.61 53.17 53.31 53.58 53.39 53.00 53.81 55.24 52.88 48.54 51.20 51.74 52.45 53.37 49.36 47.69 47.54 49.01 48.52 49.95 53.01 51.99 49.34 49.16 51.73 52.86 50.46 48.13 47.03 48.32 45.41 46.17 45.11 43.27 43.46 46.78 45.53
51.33 50.80 50.61 50.83 51.14 51.46 51.61 51.92 52.50 52.57 52.83 53.14 52.83 52.47 53.32 54.61 47.95 46.05 50.15 50.41 51.10 52.07 49.29 48.49 48.79 48.08 45.95 49.05 50.56 51.85 48.25 52.49 50.38 48.23 46.44 46.62 45.44 47.38 45.27 46.78 48.65 45.78 43.15 43.79 44.10
50.83 50.33 50.52 50.30 50.34 50.86 51.48 51.51 51.96 52.28 52.61 52.96 52.38 52.02 53.38 52.49 39.21 45.00 48.29 48.50 49.63 49.32 47.70 47.34 47.13 45.50 44.31 44.25 48.84 46.27 50.70 51.01 49.00 45.42 43.47 43.88 46.12 44.23 45.15 48.76 44.24 47.49 46.29 43.84 43.48
50.69 49.85 49.99 50.03 50.02 50.49 50.95 51.38 51.72 52.11 52.37 52.34 51.80 51.68 51.87 45.05 43.77 44.80 45.45 44.82 46.39 46.26 45.68 46.29 46.03 46.42 43.97 45.24 46.61 45.39 47.52 46.70 46.73 44.52 44.42 43.74 42.58 44.15 46.35 48.44 43.70 45.51 44.80 43.68 44.35
50.07 49.49 49.57 49.52 49.67 50.02 50.48 51.16 51.43 51.72 52.22 51.46 51.17 51.70 48.64 39.37 44.08 43.95 43.24 43.86 45.36 45.80 45.43 46.89 46.86 48.35 45.52 44.76 44.23 45.02 45.63 44.98 44.11 44.66 44.01 42.98 45.04 42.70 46.86 49.18 43.15 43.68 43.64 44.16 44.36
49.88 49.18 48.99 49.38 49.46 49.65 50.19 50.84 51.23 51.58 51.75 50.85 51.36 51.28 44.82 42.19 44.06 44.43 43.68 43.87 44.29 45.61 45.11 47.27 47.89 46.29 46.57 43.39 44.56 42.77 40.61 41.90 42.34 41.67 41.99 42.09 42.06 41.30 47.01 43.15 43.08 42.05 43.51 43.78 44.44
49.12 49.07 48.82 48.97 49.16 49.31 49.77 50.52 51.02 51.49 51.35 50.07 52.25 49.34 41.28 43.19 45.73 42.58 43.82 43.66 44.72 45.51 46.34 46.75 47.47 46.48 44.77 44.11 41.71 39.55 39.67 36.84 41.00 39.16 41.65 42.34 38.70 46.16 48.64 42.56 43.70 43.84 44.14 42.91 43.61
49.26 48.83 48.62 48.71 48.81 48.83 49.59 50.30 50.95 51.35 50.44 50.09 46.65 43.17 39.90 43.51 40.36 41.78 42.64 42.18 43.41 44.63 45.59 45.57 46.48 44.65 42.74 40.44 39.29 39.88 35.75 37.81 38.82 39.22 39.60 39.13 38.95 44.01 41.81 42.06 43.51 44.23 44.00 42.30 42.58
49.83 48.88 48.57 48.53 48.65 48.72 49.60 50.55 49.64 47.48 46.62 46.38 42.25 38.72 40.02 37.59 39.67 40.05 42.10 41.94 42.32 43.42 42.71 42.97 43.05 40.22 40.52 38.80 32.67 36.36 36.96 38.05 38.13 38.18 36.00 36.66 36.61 41.49 38.47 40.43 41.78 44.46 43.58 42.66 41.61
50.16 48.99 48.67 48.34 48.32 48.66 48.94 44.66 41.23 38.54 40.20 39.41 38.92 38.03 37.15 39.05 40.13 39.02 40.69 41.22 42.90 41.61 37.10 40.53 36.91 34.63 37.87 39.68 39.74 39.18 37.39 37.53 39.99 36.80 35.08 36.54 37.21 39.90 42.70 38.83 39.32 41.71 43.40 42.46 41.61
50.30 49.22 48.20 47.80 47.84 48.17 47.57 40.11 40.26 38.98 36.21 39.88 37.38 36.93 37.31 38.20 35.59 37.33 40.48 38.83 38.63 35.48 38.54 35.79 32.85 38.39 39.28 38.44 38.13 37.10 35.22 35.20 38.20 35.52 32.69 35.44 35.74 38.86 40.06 40.76 39.77 40.64 41.73 42.07 41.45
50.44 49.34 47.60 47.08 47.31 46.50 43.87 40.49 42.67 41.96 35.50 34.64 36.32 36.82 36.08 37.18 36.12 36.19 38.22 38.67 36.71 35.20 35.37 34.27 34.58 34.41 34.90 35.11 33.63 34.59 33.84 34.57 34.48 36.17 34.54 33.48 32.80 36.14 38.96 40.27 40.79 41.26 42.49 42.77 41.56
50.45 48.95 47.13 46.43 43.25 44.21 39.90 42.36 43.50 42.75 33.59 33.34 31.79 34.19 34.84 36.67 33.75 36.32 37.57 37.43 35.44 34.01 35.22 34.77 34.76 32.30 32.44 32.39 34.37 30.51 36.40 35.09 33.84 31.80 28.97 33.65 27.47 35.89 39.05 39.21 38.43 39.35 39.55 40.94 41.46
50.32 48.59 47.28 46.13 43.53 38.73 40.50 42.49 43.38 41.88 23.63 33.19 30.01 36.20 34.99 33.77 33.07 32.76 36.56 35.76 33.85 32.94 33.42 31.65 30.65 30.01 30.24 32.03 34.09 31.88 32.67 32.83 33.26 31.88 31.25 31.87 27.75 33.53 37.41 36.32 38.06 38.04 38.55 39.63 41.85
50.20 48.41 47.07 44.34 44.04 43.36 42.28 42.04 41.27 30.69 21.88 26.22 30.30 29.37 29.82 31.33 31.34 33.15 33.82 36.28 34.64 31.81 31.64 30.49 30.67 30.99 31.77 29.60 30.36 32.63 31.34 30.88 30.90 30.33 23.50 30.10 30.02 31.59 35.69 37.05 37.60 39.77 40.09 38.41 40.77
49.91 48.37 45.71 45.48 39.63 41.22 41.82 39.01 29.51 24.38 30.90 28.03 26.42 28.69 30.29 28.33 28.86 30.83 30.02 29.32 29.46 25.02 26.36 27.99 28.83 29.34 30.18 29.06 30.37 30.74 29.52 25.22 23.50 22.01 22.61 30.19 30.19 32.76 37.44 38.39 37.05 37.56 40.14 40.13 39.72
49.40 47.88 44.56 42.41 42.12 42.03 39.79 32.65 21.55 31.67 33.21 28.26 28.53 28.96 27.96 28.82 29.43 29.13 29.14 28.72 31.49 30.07 29.27 26.97 25.14 26.96 29.57 29.94 29.39 28.60 29.94 26.56 20.65 24.02 27.75 26.09 24.23 31.80 38.08 39.20 38.46 37.05 37.28 39.37 39.12
47.94 40.49 41.44 39.75 41.19 41.06 34.72 24.96 28.23 32.97 30.52 27.32 27.30 26.46 26.47 27.03 28.15 28.35 29.08 30.20 32.64 30.75 28.28 27.12 25.95 26.23 26.16 27.64 28.12 27.79 23.91 29.99 25.26 19.91 21.37 28.29 32.33 35.85 37.26 36.83 37.50 37.18 35.66 35.61 37.65
40.04 37.68 34.31 40.00 41.47 38.45 31.76 26.92 31.52 30.57 29.83 29.75 27.71 29.92 28.74 25.16 25.45 27.07 28.21 31.38 29.03 30.71 30.35 30.49 25.01 23.58 24.25 26.84 27.49 25.65 27.91 23.48 24.94 18.55 19.73 27.29 28.95 30.45 35.06 36.67 37.73 37.56 37.46 37.05 37.04
38.17 33.16 34.33 39.41 40.68 33.82 26.21 28.77 29.81 31.40 30.77 27.90 28.47 28.52 28.85 25.08 26.57 25.46 29.29 28.65 29.72 28.03 30.49 33.24 27.88 20.22 22.64 22.05 25.32 22.65 24.08 23.60 24.47 26.12 22.42 22.51 28.73 37.76 36.15 35.51 34.62 35.55 35.84 36.51 37.70
35.26 31.53 34.77 38.61 29.16 29.56 27.67 32.26 28.58 28.92 29.86 28.35 28.74 29.33 28.25 27.88 26.44 26.69 28.42 29.28 31.06 29.18 25.02 30.27 30.67 23.63 23.75 24.29 24.19 22.62 26.66 26.91 23.34 23.69 24.59 24.02 25.49 37.50 38.11 35.10 33.33 33.62 35.14 35.49 36.59
31.75 29.89 35.17 37.26 24.56 25.17 29.27 25.68 27.39 27.55 28.36 29.30 27.77 30.08 31.73 28.02 26.55 27.77 28.88 29.31 30.36 29.45 28.85 27.79 26.06 21.71 21.25 20.50 20.58 19.54 23.87 25.60 27.66 25.00 22.29 22.19 27.05 34.21 35.53 36.37 36.34 34.17 34.86 35.87 34.75
31.87 27.57 31.18 32.98 32.65 29.71 27.95 28.40 25.96 31.22 28.47 30.84 28.70 28.18 26.99 26.22 29.96 30.32 26.52 25.69 28.53 29.24 30.54 30.17 30.15 25.01 22.80 22.59 23.81 17.75 20.13 23.41 23.47 21.84 23.64 25.03 27.52 32.19 34.24 34.65 36.02 36.69 37.88 37.60 34.90
32.74 29.42 29.85 25.62 27.71 28.22 27.43 29.19 26.15 25.70 28.24 28.72 27.39 28.12 27.68 24.77 24.33 23.87 28.19 24.29 25.44 28.16 29.01 29.69 21.71 21.68 23.98 24.46 21.96 22.17 21.47 20.61 19.50 22.24 20.97 26.19 27.82 31.65 33.96 34.97 35.93 36.56 36.42 34.45 33.34
31.13 31.02 32.13 30.43 28.83 27.33 27.23 25.60 25.05 27.15 28.00 25.24 23.73 27.98 27.17 24.55 27.00 26.13 27.62 26.31 27.60 24.18 26.51 23.74 24.61 18.57 20.21 24.91 22.66 18.34 21.68 20.97 23.06 23.57 24.28 25.55 25.08 32.02 33.55 34.65 34.21 35.13 35.12 34.09 34.75
35.41 34.44 31.77 28.54 29.01 26.57 26.69 25.69 26.33 28.92 30.23 29.52 29.00 27.19 25.67 27.67 30.69 31.35 32.59 32.20 31.39 26.95 23.77 23.48 24.35 19.87 18.53 21.11 21.44 16.99 20.98 21.85 24.28 26.20 25.43 22.01 28.40 33.46 32.71 33.47 34.59 35.08 35.09 34.29 34.57
MSLP
1020.46 1020.15 1020.20 1020.00 1019.58 1019.61 1019.06 1018.84 1018.75 1018.40 1018.26 1017.87 1017.77 1017.62 1017.32 1017.08 1016.59 1016.06 1015.26 1015.23 1015.08 1015.39 1015.07 1014.50 1014.01 1013.55 1013.32 1012.31 1012.23 1012.06 1011.09 1009.70 1009.45 1009.92 1010.03 1010.69 1010.78 1011.65 1012.31 1012.21 1012.95 1013.76 1014.29 1014.96 1016.19
1020.35 1019.98 1020.10 1020.08 1019.53 1019.46 1018.95 1018.93 1018.66 1018.35 1018.19 1017.96 1017.69 1017.36 1017.28 1016.94 1016.22 1015.16 1015.16 1015.14 1015.17 1015.28 1014.57 1014.07 1013.32 1013.14 1012.51 1012.13 1011.95 1011.60 1010.80 1010.09 1010.32 1010.62 1011.24 1011.55 1011.87 1011.72 1012.56 1012.53 1013.19 1014.25 1015.38 1015.74 1017.00
1020.15 1020.39 1020.20 1019.93 1019.56 1019.43 1019.03 1018.88 1018.42 1018.17 1018.16 1017.98 1017.42 1017.32 1017.27 1017.12 1015.81 1014.23 1015.18 1015.19 1015.04 1015.19 1014.66 1014.31 1013.87 1013.26 1012.33 1011.87 1011.59 1011.17 1010.63 1010.63 1011.31 1012.01 1012.75 1012.28 1012.35 1012.20 1012.65 1012.17 1012.27 1013.15 1014.87 1016.14 1016.83
1020.37 1020.30 1020.04 1019.73 1019.68 1019.41 1018.95 1018.69 1018.27 1018.20 1018.02 1017.73 1017.54 1017.35 1017.20 1016.58 1015.43 1014.66 1015.22 1015.08 1015.00 1014.69 1014.53 1013.86 1013.54 1012.79 1012.22 1011.62 1011.22 1011.33 1011.26 1011.44 1012.40 1012.96 1013.12 1013.77 1013.09 1012.68 1012.61 1012.11 1013.56 1013.42 1014.27 1015.93 1016.34
1020.10 1020.11 1019.94 1019.80 1019.43 1019.24 1018.91 1018.53 1018.15 1018.22 1018.02 1017.63 1017.48 1017.44 1016.76 1015.96 1014.48 1014.80 1015.17 1014.83 1014.69 1014.71 1014.16 1013.53 1012.86 1012.26 1011.74 1011.29 1011.61 1011.92 1011.25 1012.17 1012.68 1013.50 1013.68 1014.14 1013.37 1013.58 1012.41 1012.86 1014.17 1014.29 1014.83 1015.55 1016.05
1019.86 1019.90 1019.82 1019.67 1019.39 1019.12 1018.91 1018.55 1018.15 1017.95 1017.85 1017.34 1017.10 1017.35 1016.48 1015.30 1014.84 1014.78 1014.88 1014.85 1014.43 1014.22 1013.74 1013.49 1012.65 1012.22 1012.03 1011.79 1012.03 1012.02 1012.10 1012.42 1013.01 1013.28 1013.80 1013.82 1013.04 1013.91 1012.33 1013.02 1014.44 1014.38 1014.86 1015.39 1015.84
1019.75 1019.74 1019.62 1019.53 1019.11 1019.07 1018.89 1018.29 1018.00 1017.51 1017.49 1017.24 1017.10 1016.86 1015.79 1014.52 1014.72 1014.78 1015.07 1014.56 1014.44 1014.37 1013.64 1013.55 1013.43 1013.07 1012.15 1012.24 1012.56 1012.59 1012.55 1012.38 1012.79 1013.32 1013.70 1014.08 1012.83 1011.99 1012.49 1013.20 1013.91 1014.12 1014.23 1014.94 1015.44
1019.41 1019.46 1019.44 1019.28 1019.13 1018.95 1018.43 1018.06 1017.62 1017.45 1017.22 1017.21 1016.99 1016.36 1014.77 1014.88 1014.61 1014.76 1014.72 1014.63 1014.63 1014.42 1014.43 1013.99 1013.70 1013.16 1012.76 1013.02 1012.75 1012.46 1012.48 1011.76 1011.63 1012.97 1013.46 1013.75 1011.01 1010.74 1010.74 1012.58 1012.56 1013.09 1013.48 1014.24 1014.84
1019.16 1019.31 1019.43 1019.20 1019.13 1018.74 1018.32 1017.72 1017.62 1017.31 1017.18 1016.93 1016.72 1016.12 1014.61 1014.93 1014.72 1014.83 1014.87 1014.56 1014.46 1014.45 1014.45 1014.19 1013.67 1012.99 1013.18 1012.53 1011.83 1011.53 1010.69 1010.81 1011.64 1012.72 1012.97 1012.96 1010.93 1010.45 1011.82 1012.10 1011.95 1012.30 1012.96 1013.55 1014.25
1018.77 1018.92 1019.10 1019.04 1018.83 1018.48 1018.13 1017.56 1017.04 1017.09 1016.72 1016.54 1016.27 1016.12 1014.79 1014.59 1014.83 1014.96 1015.00 1014.92 1014.32 1014.36 1014.32 1013.96 1013.40 1012.80 1012.39 1011.63 1010.14 1009.80 1010.08 1010.56 1010.73 1012.01 1012.72 1012.14 1010.95 1010.65 1011.39 1011.64 1011.50 1011.41 1012.09 1012.81 1013.43
1018.56 1018.59 1018.65 1018.80 1018.74 1018.44 1017.93 1017.08 1017.14 1016.97 1016.08 1014.82 1014.77 1014.45 1014.50 1014.90 1015.19 1014.97 1015.12 1014.74 1014.19 1013.98 1013.42 1013.47 1012.90 1011.47 1011.00 1010.96 1010.45 1009.93 1010.24 1009.95 1010.16 1011.90 1012.38 1011.10 1010.15 1009.54 1009.53 1010.35 1010.45 1010.47 1010.88 1011.71 1012.40
1018.15 1018.27 1018.51 1018.64 1018.60 1018.36 1018.10 1016.93 1016.61 1016.99 1015.51 1014.76 1014.96 1014.99 1015.16 1015.11 1014.79 1015.03 1015.23 1014.58 1013.96 1013.27 1013.16 1013.75 1012.17 1011.39 1011.38 1011.50 1010.94 1011.07 1010.74 1010.35 1010.56 1011.69 1012.38 1010.73 1008.88 1008.35 1008.15 1007.89 1008.64 1009.08 1009.60 1010.38 1011.78
1017.76 1018.12 1018.18 1018.50 1018.28 1018.08 1017.42 1016.91 1016.91 1016.64 1015.78 1014.85 1014.86 1014.70 1015.13 1015.27 1014.63 1014.75 1015.04 1014.34 1013.68 1013.25 1013.19 1012.47 1012.25 1012.58 1012.50 1012.36 1012.22 1011.71 1011.23 1010.84 1010.88 1011.34 1011.57 1010.63 1007.50 1006.65 1005.63 1005.95 1006.57 1007.43 1008.05 1009.08 1010.10
1017.40 1017.86 1018.03 1018.34 1018.51 1017.47 1017.10 1017.06 1017.01 1016.82 1016.16 1014.70 1015.05 1015.07 1015.32 1015.17 1015.04 1015.19 1015.10 1014.69 1014.09 1013.28 1013.24 1013.10 1013.10 1013.39 1013.43 1013.06 1012.95 1012.36 1011.86 1011.93 1011.93 1012.00 1010.50 1010.36 1006.19 1004.89 1004.11 1004.14 1005.19 1005.98 1006.80 1007.25 1008.32
1017.23 1017.64 1018.00 1018.27 1018.00 1017.54 1017.52 1017.29 1017.12 1016.90 1016.24 1014.20 1015.11 1015.82 1015.20 1015.05 1015.04 1015.25 1015.55 1014.88 1013.92 1013.77 1014.05 1013.53 1013.95 1014.24 1014.18 1013.87 1013.74 1013.12 1013.15 1012.88 1012.61 1011.85 1010.92 1009.52 1008.50 1003.58 1003.39 1003.31 1003.68 1004.36 1005.17 1006.12 1007.11
1016.73 1017.45 1017.81 1018.07 1018.27 1017.73 1017.65 1017.52 1017.18 1017.23 1014.87 1014.18 1014.69 1015.07 1014.94 1014.85 1014.76 1015.06 1015.15 1015.01 1014.94 1014.50 1014.41 1014.45 1015.23 1015.14 1014.85 1015.18 1014.98 1014.58 1014.06 1013.71 1013.23 1012.40 1010.34 1008.69 1007.44 1001.55 1002.71 1002.34 1002.48 1002.88 1003.66 1005.06 1006.24
1015.99 1016.92 1017.40 1017.74 1017.97 1018.07 1017.86 1017.50 1017.49 1015.89 1013.70 1014.02 1014.05 1014.33 1014.10 1014.30 1014.53 1014.41 1014.42 1014.46 1014.10 1014.37 1014.02 1014.64 1014.88 1015.60 1015.85 1015.63 1015.69 1015.29 1014.50 1013.59 1012.98 1012.08 1008.92 1007.81 1006.32 1002.50 1002.87 1002.36 1002.83 1002.91 1003.26 1003.95 1005.61
1015.89 1016.63 1017.41 1017.32 1018.11 1018.07 1018.14 1017.75 1016.53 1013.74 1013.36 1013.67 1013.59 1013.75 1013.68 1013.78 1013.78 1013.98 1013.88 1013.58 1013.71 1013.65 1013.38 1013.68 1014.70 1015.59 1015.97 1015.65 1015.29 1015.18 1014.48 1013.50 1012.16 1010.78 1008.67 1008.55 1005.71 1003.07 1003.00 1002.66 1002.64 1003.35 1003.94 1004.22 1004.89
1015.74 1017.39 1017.47 1018.32 1018.16 1018.33 1017.91 1017.16 1014.35 1013.12 1013.06 1013.29 1013.73 1013.31 1013.57 1013.73 1013.76 1013.60 1013.22 1012.71 1012.58 1013.07 1013.33 1013.20 1014.60 1016.30 1016.85 1016.88 1016.70 1016.09 1015.60 1014.60 1013.53 1011.95 1010.47 1006.88 1004.48 1003.37 1002.86 1002.52 1002.88 1003.51 1004.48 1004.93 1005.23
1016.46 1017.20 1018.55 1018.53 1018.55 1018.32 1018.00 1015.97 1014.43 1013.55 1013.40 1013.24 1012.69 1012.34 1012.64 1013.37 1013.62 1013.31 1012.80 1012.43 1012.52 1012.86 1013.62 1013.45 1014.85 1016.58 1017.36 1017.64 1017.42 1017.05 1016.56 1015.48 1014.47 1012.48 1009.34 1005.89 1004.30 1002.94 1002.70 1002.32 1002.98 1003.66 1004.18 1004.64 1005.11
1016.64 1017.94 1019.39 1019.05 1018.66 1018.36 1016.86 1015.64 1014.74 1013.94 1013.95 1013.73 1012.82 1012.63 1012.39 1012.80 1013.17 1013.14 1012.52 1012.74 1012.78 1013.44 1013.68 1014.31 1014.80 1017.22 1017.68 1017.17 1016.54 1017.40 1016.48 1015.85 1014.67 1012.40 1009.64 1006.42 1003.86 1002.90 1002.90 1003.22 1003.83 1004.36 1004.79 1004.91 1005.03
1017.15 1018.47 1019.57 1018.98 1019.12 1018.57 1016.84 1015.65 1015.42 1014.49 1014.50 1014.23 1013.52 1013.08 1012.60 1012.72 1012.87 1012.71 1012.41 1012.50 1013.02 1013.60 1013.76 1014.24 1014.90 1015.67 1016.19 1016.90 1017.16 1016.92 1015.80 1015.18 1014.11 1012.03 1010.23 1007.96 1004.13 1003.07 1002.80 1003.76 1004.34 1004.65 1004.99 1005.25 1005.47
1017.88 1018.71 1019.44 1018.93 1018.43 1017.92 1017.07 1016.32 1015.68 1015.24 1015.00 1014.55 1014.10 1013.55 1013.05 1013.00 1012.88 1012.26 1012.40 1012.88 1013.27 1013.70 1013.83 1014.32 1014.94 1015.27 1015.97 1017.40 1017.74 1017.13 1016.03 1015.11 1013.95 1012.84 1010.03 1008.68 1004.08 1003.58 1003.30 1003.52 1003.59 1004.08 1004.52 1005.21 1005.71
1018.57 1018.81 1019.49 1018.95 1017.98 1017.17 1016.74 1016.14 1015.75 1014.97 1014.95 1014.52 1014.70 1014.43 1013.96 1013.04 1012.44 1012.52 1013.05 1013.72 1013.93 1014.19 1014.39 1014.28 1014.47 1014.65 1014.51 1015.48 1016.00 1016.63 1015.80 1015.23 1014.71 1012.71 1009.93 1006.86 1005.10 1004.45 1004.12 1003.93 1003.41 1003.61 1003.76 1004.51 1005.53
1018.72 1019.12 1019.29 1018.72 1018.12 1017.67 1017.33 1016.13 1015.50 1015.20 1015.16 1014.83 1014.73 1014.40 1013.90 1013.54 1013.11 1012.91 1013.32 1014.18 1014.78 1014.78 1014.92 1014.90 1015.06 1015.25 1014.90 1015.13 1015.63 1015.44 1015.14 1014.99 1014.25 1012.48 1010.85 1006.85 1005.59 1004.81 1004.60 1004.23 1003.86 1003.99 1003.97 1004.62 1005.30
1019.20 1019.15 1019.09 1018.36 1018.20 1017.76 1017.04 1016.19 1015.93 1015.53 1015.64 1015.00 1014.57 1013.82 1014.08 1013.85 1013.38 1012.97 1013.20 1013.80 1013.96 1015.39 1015.52 1015.59 1015.14 1015.60 1015.14 1014.97 1014.99 1014.31 1013.92 1014.01 1012.86 1011.80 1010.14 1008.98 1005.20 1005.79 1005.35 1004.77 1003.98 1003.62 1003.77 1004.20 1004.49
1019.63 1019.61 1019.37 1017.93 1017.27 1016.97 1016.44 1016.33 1015.91 1015.81 1015.30 1014.98 1014.81 1014.68 1014.29 1013.56 1013.80 1014.02 1014.21 1014.22 1014.16 1014.44 1015.22 1015.61 1015.55 1015.82 1014.70 1014.53 1014.22 1012.49 1011.43 1011.33 1010.56 1010.19 1009.29 1008.14 1004.00 1005.29 1004.52 1004.20 1003.51 1003.74 1004.02 1004.28 1004.40
Wind_Speed
6 7 10 11 10 10 10 10 11 11 11 10 11 11 11 13 15 8 8 3 3 6 6 7 7 6 6 6 6 3 8 12 15 10 8 3 9 2 4 2 3 3 4 3 20
7 8 9 11 10 11 10 11 10 11 11 12 11 11 11 11 10 11 6 2 3 5 5 6 6 5 7 5 5 9 11 16 7 9 8 7 8 1 4 8 8 6 3 12 18
7 8 9 10 12 11 11 11 11 10 11 12 11 10 10 11 7 2 4 2 3 5 5 5 5 6 10 7 8 8 14 9 2 1 3 5 7 5 8 11 12 12 13 17 18
8 9 10 10 11 12 11 11 11 11 11 12 11 9 8 7 7 4 4 4 3 4 6 5 8 6 7 12 11 9 11 6 1 3 4 5 3 5 10 9 7 3 18 18 19
9 10 10 11 11 12 13 11 11 12 12 10 10 8 6 7 6 4 3 0 3 5 8 8 10 11 12 7 7 13 13 5 4 4 6 5 5 9 8 6 0 3 14 18 17
10 10 10 11 12 12 14 12 11 11 12 10 8 6 7 13 4 2 3 2 2 6 5 7 4 6 8 8 12 4 6 6 4 6 4 7 4 4 9 12 8 11 14 16 18
10 10 11 12 12 13 14 12 12 11 11 10 6 7 7 6 1 2 1 1 0 3 5 4 4 8 2 5 2 2 8 6 10 6 4 5 9 17 17 13 14 14 15 16 17
8 10 11 12 12 14 13 13 13 12 10 7 4 6 7 2 0 2 2 3 2 2 3 0 2 4 5 3 3 5 5 11 3 9 4 10 20 14 17 16 17 17 17 17 19
8 9 11 11 12 13 13 13 13 11 8 6 5 5 4 4 3 1 2 3 2 3 1 2 4 4 5 8 9 10 13 15 8 13 6 13 16 3 5 12 16 16 16 16 18
9 8 10 11 12 13 14 14 7 5 5 4 4 5 5 1 3 1 1 2 2 7 5 6 6 9 11 12 14 14 16 14 14 7 10 12 21 13 10 12 15 16 16 18 19
10 8 8 9 12 12 10 3 4 5 7 6 1 2 2 3 1 2 1 5 5 8 9 11 11 15 18 19 19 19 15 16 12 5 7 17 21 20 16 14 16 18 18 19 20
11 9 6 7 11 11 6 5 5 3 7 10 4 3 0 1 3 4 2 9 8 12 11 6 16 15 6 9 15 16 19 20 18 6 5 16 24 21 21 21 22 21 20 20 18
11 9 4 6 10 7 7 6 3 4 6 4 4 5 2 4 3 8 4 4 8 13 14 14 2 5 4 9 11 17 18 18 17 5 13 15 24 24 22 24 22 22 20 19 21
10 8 4 4 6 1 3 3 2 3 4 6 6 4 4 3 5 1 1 3 6 10 10 12 2 5 6 11 12 15 9 12 15 7 9 4 16 16 14 10 15 20 20 22 23
11 8 6 5 6 4 5 2 1 2 5 7 5 2 4 6 6 3 1 4 8 8 6 3 4 7 11 6 8 1 3 5 10 12 14 16 10 6 11 16 18 20 21 22 22
14 11 7 3 3 4 3 2 3 2 11 4 5 6 7 5 4 5 3 1 3 3 4 2 1 3 2 3 1 3 2 2 4 6 9 15 16 17 15 14 16 14 18 20 21
19 15 9 3 1 3 4 2 2 8 2 4 5 7 9 7 6 7 9 10 7 7 10 5 8 4 2 4 3 7 6 4 5 6 9 1 13 18 11 18 9 11 11 12 17
18 16 7 4 2 1 1 2 8 1 2 1 3 7 6 9 5 8 7 8 12 6 2 7 6 10 9 3 4 13 7 6 8 9 10 3 10 7 8 14 10 9 9 8 13
19 2 3 4 2 2 3 7 7 2 4 9 5 5 5 5 3 9 10 6 6 15 9 7 4 4 1 1 2 7 8 3 6 2 6 10 16 9 14 15 12 10 5 9 10
3 4 3 5 3 4 2 17 5 2 1 4 7 9 8 7 8 10 11 5 5 10 3 0 3 1 4 2 3 3 3 4 4 5 9 9 8 11 12 13 6 8 6 9 11
4 3 2 6 3 0 9 10 8 2 2 4 4 2 3 7 8 6 4 3 3 7 6 1 0 5 2 10 10 6 5 5 3 5 6 9 6 4 5 6 9 11 11 13 7
2 3 1 3 3 2 11 4 6 3 2 3 3 4 6 6 7 8 7 4 6 8 10 5 1 4 6 4 3 3 6 10 6 7 7 7 11 10 12 4 4 7 4 7 6
3 2 0 3 6 6 5 6 5 6 6 0 4 6 6 6 5 7 7 3 9 7 5 9 4 4 5 2 1 5 8 8 8 4 14 10 7 3 2 4 4 3 5 6 1
1 2 1 2 3 4 10 8 11 10 9 6 4 4 4 7 8 2 4 2 5 3 4 5 5 7 10 5 4 4 7 12 10 9 11 23 24 21 20 21 21 21 20 12 4
2 3 1 1 3 7 8 5 7 8 4 4 6 19 14 8 3 6 6 3 2 4 4 2 5 4 10 12 6 7 8 11 16 20 16 19 26 19 15 14 16 16 17 7 7
3 3 2 3 4 6 5 4 11 7 5 6 14 9 12 17 15 1 6 6 7 3 6 2 7 3 5 12 12 15 16 14 22 22 26 24 38 21 23 23 24 25 22 18 13
2 1 3 4 3 3 5 3 3 3 8 13 9 5 12 18 11 14 7 10 8 8 10 7 5 4 7 2 8 16 21 25 21 19 23 24 36 19 23 23 23 22 18 16 15
Wind_Direction
309 325 321 314 309 305 309 311 313 316 315 317 315 317 317 314 300 223 242 36 360 330 311 272 258 231 240 228 222 257 250 250 255 281 273 65 219 128 3 172 194 150 334 54 142
310 316 316 314 315 308 311 310 308 314 315 313 312 316 315 314 275 251 84 47 328 327 272 273 244 221 227 234 212 219 241 255 318 215 241 212 241 166 239 201 210 187 124 138 152
311 305 305 312 313 309 304 300 309 312 310 308 313 310 309 301 269 181 49 353 319 273 258 279 268 238 237 229 210 216 244 283 168 70 316 243 249 178 232 237 230 215 167 161 168
290 300 312 309 306 311 308 303 308 309 308 309 304 298 298 260 254 89 4 337 302 264 227 214 222 219 244 221 219 245 247 261 121 147 92 286 308 231 225 257 344 12 160 172 180
291 301 306 308 308 309 304 305 308 306 302 304 300 290 262 219 254 115 322 299 207 199 225 226 233 234 244 242 226 245 251 216 197 203 209 208 234 275 242 251 302 223 162 182 188
291 297 306 306 308 309 301 300 302 302 303 305 297 276 247 242 92 58 346 205 218 220 212 220 254 264 284 256 236 11 263 258 231 214 238 240 224 264 245 208 208 177 185 191 195
288 294 300 305 308 307 300 303 302 306 303 304 285 238 244 261 64 11 346 192 215 269 229 215 263 232 301 235 193 272 262 231 228 206 236 245 245 224 241 177 202 202 190 195 201
286 295 297 301 307 308 304 304 304 301 301 293 243 234 264 90 8 203 300 175 212 220 264 293 251 256 260 118 192 236 246 255 136 170 188 209 257 248 200 190 211 203 196 195 200
250 273 289 297 301 306 304 302 294 288 276 270 232 241 240 131 198 99 289 244 165 176 170 168 204 234 183 225 239 212 259 228 249 204 175 198 263 176 173 213 225 209 206 197 197
246 248 283 295 305 311 306 295 288 264 215 217 256 234 177 155 120 107 145 227 193 159 161 195 210 218 219 213 230 237 231 260 251 176 218 225 250 253 200 223 233 221 213 205 205
228 241 271 295 304 312 314 251 202 200 223 220 281 323 118 78 206 153 106 182 178 211 206 202 217 217 224 228 252 275 279 268 275 112 257 240 253 258 248 211 228 228 219 214 210
228 231 247 291 299 308 289 249 6 354 280 213 233 237 353 6 184 165 228 201 198 211 203 190 232 240 243 285 245 254 257 261 270 163 223 275 270 265 256 242 225 228 221 216 208
223 233 204 293 302 281 246 258 345 321 261 170 209 220 155 206 246 164 220 211 218 217 206 231 104 61 203 230 236 242 251 259 265 277 236 276 273 256 247 236 235 225 230 215 207
213 211 196 291 276 327 233 62 11 332 289 194 204 165 163 193 224 125 231 262 201 227 219 245 125 177 198 234 226 253 259 258 264 255 263 170 291 286 295 235 226 226 223 220 205
208 204 200 198 328 233 15 319 1 249 265 98 148 70 147 211 119 143 108 194 212 181 193 179 190 199 226 241 188 282 10 252 263 258 277 253 262 284 259 256 237 227 225 220 211
186 190 178 176 248 330 335 307 240 149 244 144 133 166 162 191 150 127 170 113 10 170 236 329 56 252 44 87 4 101 141 192 233 259 252 240 240 275 254 253 247 249 227 220 213
176 179 171 141 330 348 318 205 157 220 62 175 179 180 207 170 174 193 175 182 184 165 211 172 203 138 207 162 152 202 190 225 232 210 251 358 244 247 302 293 255 266 278 211 209
172 168 157 111 29 196 161 145 226 324 225 62 137 163 203 159 187 186 181 209 220 232 165 201 213 181 162 251 200 194 220 239 255 245 286 114 240 252 253 286 277 274 279 267 206
138 80 147 35 79 302 203 208 223 198 127 163 155 185 202 212 218 185 210 215 201 196 209 188 174 121 58 342 305 158 215 15 310 146 267 245 252 254 248 262 276 273 271 255 240
98 103 37 345 343 202 183 224 239 350 115 190 225 206 188 183 192 200 191 188 202 200 49 280 183 12 108 210 193 286 346 169 210 247 250 246 260 255 279 278 21 16 309 256 235
80 104 49 332 323 169 220 228 248 219 221 226 289 232 229 178 199 206 203 173 203 161 148 72 299 111 165 202 187 169 210 221 293 253 266 285 265 11 345 35 345 339 328 327 270
114 187 49 301 144 188 237 222 8 278 157 276 265 286 209 171 201 217 219 217 163 163 157 173 109 226 207 92 9 339 240 193 224 206 240 290 257 291 291 322 294 296 296 356 327
22 82 355 243 182 206 238 292 282 284 270 175 269 235 266 231 244 199 197 122 165 179 165 167 200 225 192 183 32 223 205 233 260 298 244 265 248 134 203 305 266 281 5 347 305
335 357 29 278 1 280 216 234 233 226 253 210 230 313 252 254 239 247 237 139 192 198 145 166 181 243 249 55 73 204 214 223 221 248 266 241 271 270 284 292 295 304 300 325 225
32 69 19 231 251 269 323 332 245 231 234 277 243 226 231 242 218 221 207 132 166 189 175 209 228 216 261 269 223 241 221 203 215 233 246 272 272 272 281 289 295 297 294 295 239
347 334 192 229 213 257 225 264 260 284 236 223 235 254 237 242 248 282 256 185 238 173 203 65 217 123 261 255 243 253 242 232 241 239 258 265 270 264 273 274 270 273 272 275 265
350 268 282 282 224 240 195 233 302 328 224 241 267 289 238 247 261 273 275 264 247 181 186 168 196 178 251 351 291 268 238 227 242 238 238 251 258 284 273 269 266 275 277 274 271